Watford City, ND

11:45 AM CST on December 18, 2017 (GMT -0600)
Watford City

Weather History for KS25 - April, 2014

Change the Weather History Date:

Sunday, April 27, 2014

  Actual Average (KISN) Record (KISN)
Temperature  
Mean Temperature 38 °F -  
Max Temperature 44 °F 57 °F 88 °F (1910)
Min Temperature 32 °F 33 °F 10 °F (1907)
Degree Days  
Heating Degree Days 26    
Moisture  
Dew Point 36 °F    
Average Humidity 91    
Maximum Humidity 100    
Minimum Humidity 61    
Precipitation  
Precipitation 0.10 in - - ()
Sea Level Pressure  
Sea Level Pressure 29.59 in    
Wind  
Wind Speed 17 mph (East)    
Max Wind Speed 25 mph    
Max Gust Speed 36 mph    
Visibility 7 miles    
Events Rain    
Averages and records for this station are not official NWS values.
T = Trace of Precipitation, MM = Missing Value Source: NWS Daily Summary

Daily Weather History Graph

Daily Weather History Graph

Search for Another Location

Airport or City:

Trip Planner

Search our weather history database for the weather conditions in past years. The results will help you decide how hot, cold, wet, or windy it might be!

Date:

Astronomy

Apr. 27, 2014 Rise Set
Actual Time 6:42 AM CDT 9:00 PM CDT
Civil Twilight 6:08 AM CDT 9:34 PM CDT
Nautical Twilight 5:25 AM CDT 10:16 PM CDT
Astronomical Twilight 4:37 AM CDT 11:05 PM CDT
Moon 5:52 AM CDT (4/27) 7:30 PM CDT (4/27)
Length of Visible Light 15h 26m
Length of Day
14h 18m
Waning Crescent, 3% of the Moon is Illuminated
Apr 27
Waning Crescent
Apr 29
New
May 6
First Quarter
May 14
Full
May 21
Last Quarter

Hourly Weather History & Observations

Time (CDT) Temp. Windchill Dew Point Humidity Pressure Visibility Wind Dir Wind Speed Gust Speed Precip Events Conditions
12:15 AM 44.6 °F 36.6 °F 33.8 °F 66% 29.60 in 10.0 mi ESE 19.6 mph 26.5 mph N/A   Scattered Clouds
12:35 AM 44.6 °F 35.5 °F 32.0 °F 61% 29.60 in 10.0 mi ESE 25.3 mph 31.1 mph N/A   Partly Cloudy
12:55 AM 44.6 °F 36.1 °F 32.0 °F 61% 29.59 in 10.0 mi ESE 21.9 mph 35.7 mph N/A   Clear
1:15 AM 44.6 °F 36.6 °F 32.0 °F 61% 29.58 in 10.0 mi ESE 19.6 mph 27.6 mph N/A   Partly Cloudy
1:35 AM 44.6 °F 35.7 °F 33.8 °F 66% 29.58 in 10.0 mi ESE 24.2 mph 29.9 mph N/A   Scattered Clouds
1:55 AM 44.6 °F 35.7 °F 33.8 °F 66% 29.57 in 10.0 mi ESE 24.2 mph 32.2 mph N/A   Mostly Cloudy
2:15 AM 42.8 °F 33.8 °F 33.8 °F 70% 29.57 in 10.0 mi ESE 21.9 mph 31.1 mph N/A   Partly Cloudy
2:35 AM 42.8 °F 33.1 °F 35.6 °F 76% 29.58 in 10.0 mi ESE 25.3 mph 29.9 mph N/A   Mostly Cloudy
2:55 AM 42.8 °F 33.8 °F 33.8 °F 70% 29.58 in 10.0 mi ESE 21.9 mph 26.5 mph N/A   Mostly Cloudy
3:15 AM 41.0 °F 31.9 °F 33.8 °F 76% 29.57 in 10.0 mi ESE 19.6 mph 28.8 mph N/A   Overcast
3:35 AM 41.0 °F 31.9 °F 33.8 °F 76% 29.57 in 10.0 mi ESE 19.6 mph 31.1 mph N/A   Overcast
3:55 AM 41.0 °F 31.6 °F 33.8 °F 76% 29.55 in 10.0 mi East 20.7 mph 28.8 mph N/A   Overcast
4:15 AM 41.0 °F 30.7 °F 33.8 °F 76% 29.55 in 10.0 mi East 25.3 mph 29.9 mph N/A   Overcast
4:35 AM 41.0 °F 31.9 °F 35.6 °F 81% 29.55 in 10.0 mi ESE 19.6 mph 25.3 mph N/A   Mostly Cloudy
4:55 AM 41.0 °F 31.4 °F 35.6 °F 81% 29.55 in 10.0 mi East 21.9 mph 26.5 mph N/A   Mostly Cloudy
5:15 AM 41.0 °F 32.5 °F 35.6 °F 81% 29.57 in 10.0 mi ESE 17.3 mph 20.7 mph N/A   Mostly Cloudy
5:35 AM 41.0 °F 32.2 °F 35.6 °F 81% 29.58 in 10.0 mi ESE 18.4 mph 24.2 mph N/A   Overcast
5:55 AM 41.0 °F 31.9 °F 35.6 °F 81% 29.57 in 10.0 mi East 19.6 mph 24.2 mph N/A   Overcast
6:15 AM 41.0 °F 32.5 °F 35.6 °F 81% 29.57 in 10.0 mi East 17.3 mph 25.3 mph N/A   Overcast
6:35 AM 39.2 °F 29.0 °F 35.6 °F 87% 29.57 in 10.0 mi East 21.9 mph 26.5 mph N/A   Overcast
6:55 AM 39.2 °F 30.5 °F 35.6 °F 87% 29.57 in 10.0 mi ESE 16.1 mph 24.2 mph N/A   Overcast
7:15 AM 39.2 °F 31.2 °F 35.6 °F 87% 29.57 in 10.0 mi East 13.8 mph 24.2 mph N/A   Overcast
7:35 AM 39.2 °F 32.0 °F 35.6 °F 87% 29.58 in 10.0 mi East 11.5 mph 19.6 mph N/A   Overcast
7:55 AM 39.2 °F 31.2 °F 37.4 °F 93% 29.57 in 10.0 mi East 13.8 mph 20.7 mph N/A   Overcast
8:15 AM 39.2 °F 31.2 °F 37.4 °F 93% 29.57 in 9.0 mi East 13.8 mph - N/A   Overcast
8:35 AM 39.2 °F 32.0 °F 37.4 °F 93% 29.57 in 8.0 mi East 11.5 mph 21.9 mph N/A   Overcast
8:55 AM 39.2 °F 32.0 °F 37.4 °F 93% 29.56 in 10.0 mi ESE 11.5 mph 18.4 mph N/A   Overcast
9:15 AM 39.2 °F 31.6 °F 37.4 °F 93% 29.56 in 10.0 mi East 12.7 mph 20.7 mph N/A   Overcast
9:55 AM 39.2 °F 30.8 °F 37.4 °F 93% 29.57 in 10.0 mi East 15.0 mph 18.4 mph N/A   Overcast
10:15 AM 39.2 °F 30.2 °F 37.4 °F 93% 29.58 in 8.0 mi ESE 17.3 mph 23.0 mph N/A   Overcast
10:35 AM 39.2 °F 31.6 °F 37.4 °F 93% 29.58 in 7.0 mi East 12.7 mph 16.1 mph N/A   Overcast
10:55 AM 39.2 °F 33.0 °F 37.4 °F 93% 29.58 in 8.0 mi East 9.2 mph - N/A   Overcast
11:15 AM 39.2 °F 31.2 °F 37.4 °F 93% 29.58 in 5.0 mi East 13.8 mph - N/A   Overcast
11:35 AM 39.2 °F 30.8 °F 37.4 °F 93% 29.58 in 6.0 mi East 15.0 mph 19.6 mph N/A Rain Light Rain
11:55 AM 39.2 °F 31.2 °F 37.4 °F 93% 29.58 in 8.0 mi East 13.8 mph 20.7 mph N/A   Overcast
12:15 PM 37.4 °F 28.9 °F 37.4 °F 100% 29.57 in 10.0 mi East 13.8 mph - N/A   Overcast
12:35 PM 37.4 °F 28.5 °F 37.4 °F 100% 29.58 in 10.0 mi East 15.0 mph - N/A Rain Light Rain
12:55 PM 37.4 °F 28.9 °F 37.4 °F 100% 29.57 in 2.0 mi East 13.8 mph - N/A   Overcast
1:15 PM 37.4 °F 29.3 °F 37.4 °F 100% 29.57 in 1.5 mi East 12.7 mph 19.6 mph N/A   Overcast
1:35 PM 37.4 °F 29.3 °F 37.4 °F 100% 29.57 in 2.0 mi East 12.7 mph 18.4 mph N/A   Overcast
1:55 PM 37.4 °F 29.3 °F 37.4 °F 100% 29.57 in 2.0 mi East 12.7 mph - N/A Rain Light Rain
2:15 PM 37.4 °F 27.8 °F 37.4 °F 100% 29.57 in 5.0 mi East 17.3 mph 23.0 mph N/A Rain Light Rain
2:35 PM 37.4 °F 28.2 °F 37.4 °F 100% 29.57 in 1.8 mi East 16.1 mph 20.7 mph N/A Rain Light Rain
3:15 PM 35.6 °F 28.6 °F 35.6 °F 100% 29.58 in 2.0 mi East 9.2 mph - 0.03 in Rain Light Rain
3:35 PM 35.6 °F 28.6 °F 35.6 °F 100% 29.57 in 3.0 mi East 9.2 mph - 0.04 in Rain Light Rain
3:55 PM 35.6 °F 28.0 °F 35.6 °F 100% 29.57 in 3.0 mi East 10.4 mph 18.4 mph 0.05 in Rain Light Rain
4:15 PM 35.6 °F 30.7 °F 35.6 °F 100% 29.56 in 3.0 mi ENE 5.8 mph - N/A Rain Light Rain
4:35 PM 37.4 °F 32.1 °F 37.4 °F 100% 29.57 in 2.0 mi ENE 6.9 mph - N/A   Overcast
4:55 PM 37.4 °F 29.3 °F 37.4 °F 100% 29.58 in 8.0 mi ESE 12.7 mph 16.1 mph N/A   Overcast
5:15 PM 37.4 °F 30.8 °F 37.4 °F 100% 29.58 in 3.0 mi East 9.2 mph - N/A   Overcast
5:35 PM 37.4 °F 28.9 °F 37.4 °F 100% 29.59 in 3.0 mi East 13.8 mph 17.3 mph N/A   Overcast
5:55 PM 37.4 °F 30.8 °F 37.4 °F 100% 29.60 in 3.0 mi East 9.2 mph - N/A   Overcast
6:15 PM 37.4 °F 29.8 °F 37.4 °F 100% 29.60 in 2.5 mi East 11.5 mph - N/A   Overcast
6:35 PM 37.4 °F 30.3 °F 37.4 °F 100% 29.60 in 6.0 mi East 10.4 mph - N/A   Overcast
6:55 PM 37.4 °F 32.1 °F 37.4 °F 100% 29.61 in 9.0 mi East 6.9 mph - N/A   Overcast
7:15 PM 35.6 °F 29.2 °F 35.6 °F 100% 29.61 in 5.0 mi East 8.1 mph - N/A Rain Light Rain
7:35 PM 35.6 °F 29.2 °F 35.6 °F 100% 29.63 in 10.0 mi East 8.1 mph - N/A   Overcast
7:55 PM 35.6 °F 28.0 °F 35.6 °F 100% 29.63 in 10.0 mi ENE 10.4 mph - N/A   Overcast
8:15 PM 35.6 °F 27.5 °F 35.6 °F 100% 29.63 in 10.0 mi East 11.5 mph - N/A   Overcast
8:35 PM 35.6 °F 28.6 °F 35.6 °F 100% 29.63 in 4.0 mi East 9.2 mph - N/A   Overcast
8:55 PM 35.6 °F 29.9 °F 35.6 °F 100% 29.63 in 2.0 mi East 6.9 mph - N/A   Overcast
9:15 PM 35.6 °F 29.9 °F 35.6 °F 100% 29.64 in 4.0 mi ENE 6.9 mph - N/A   Overcast
9:35 PM 35.6 °F 29.9 °F 35.6 °F 100% 29.64 in 4.0 mi ENE 6.9 mph - N/A   Overcast
9:55 PM 35.6 °F 29.9 °F 35.6 °F 100% 29.65 in 4.0 mi ENE 6.9 mph - N/A   Overcast
10:15 PM 35.6 °F 30.7 °F 35.6 °F 100% 29.66 in 3.0 mi East 5.8 mph - N/A   Overcast
10:35 PM 35.6 °F 29.2 °F 35.6 °F 100% 29.66 in 2.5 mi ENE 8.1 mph - N/A   Overcast
10:55 PM 35.6 °F 29.9 °F 35.6 °F 100% 29.65 in 2.5 mi NE 6.9 mph - N/A   Overcast
11:15 PM 35.6 °F 30.7 °F 35.6 °F 100% 29.65 in 4.0 mi NE 5.8 mph - N/A   Overcast
11:35 PM 33.8 °F 27.0 °F 33.8 °F 100% 29.64 in 5.0 mi NE 8.1 mph - N/A Rain Light Rain
11:55 PM 32.0 °F 25.6 °F 32.0 °F 100% 29.63 in 3.0 mi NE 6.9 mph - 0.05 in   Overcast